When you browse on this site, cookies collect data to enhance your experience and personalize the content and advertising you see.
Visit our Privacy Policy to learn more. By continuing to use the site, you agree to this use of cookies and data.
  • In Romania
  • List of Countries
  • For 7 days
  • Water Temperature
  • Weather Map
  • Weather Widgets
  • user-avatar
    Login

    Hourly Weather Chiquimula

    Today, 23 January, Thursday

    Time Temperature Precipitation Wind Pressure Humidity
    00:00 +15°C° 0 mm 0 mps 708 mmHg 95%
    01:00 +15°C° 0 mm 0 mps 708 mmHg 95%
    02:00 +14°C° 0 mm 0 mps 707 mmHg 95%
    03:00 +14°C° 0 mm 0 mps 707 mmHg 95%
    04:00 +14°C° 0 mm 0 mps 707 mmHg 95%
    05:00 +14°C° 0 mm 0 mps 707 mmHg 95%
    06:00 +14°C° 0 mm 0 mps 707 mmHg 95%
    07:00 +17°C° 0 mm 0 mps 708 mmHg 84%
    08:00 +20°C° 0 mm 0 mps 709 mmHg 73%
    09:00 +23°C° 0 mm 0 mps 710 mmHg 62%
    10:00 +25°C° 0 mm 0 mps 709 mmHg 55%
    11:00 +30°C° 0 mm 1 mps 709 mmHg 48%
    12:00 +32°C° 0 mm 1 mps 709 mmHg 41%
    13:00 +32°C° 0 mm 1 mps 708 mmHg 40%
    14:00 +32°C° 0 mm 1 mps 707 mmHg 39%
    15:00 +32°C° 0 mm 1 mps 707 mmHg 38%
    16:00 +30°C° 0 mm 1 mps 706 mmHg 48%
    17:00 +27°C° 0 mm 1 mps 706 mmHg 57%
    18:00 +25°C° 0 mm 1 mps 706 mmHg 67%
    19:00 +23°C° 0 mm 1 mps 707 mmHg 74%
    20:00 +22°C° 0 mm 1 mps 707 mmHg 81%
    21:00 +21°C° 0 mm 1 mps 708 mmHg 88%
    22:00 +20°C° 0 mm 1 mps 708 mmHg 91%
    23:00 +20°C° 0 mm 1 mps 708 mmHg 94%

    Tomorrow, 24 January, Friday

    Time Temperature Precipitation Wind Pressure Humidity
    00:00 +19°C° 0 mm 1 mps 708 mmHg 96%
    01:00 +19°C° 0 mm 1 mps 708 mmHg 96%
    02:00 +20°C° 0 mm 1 mps 707 mmHg 96%
    03:00 +20°C° 0 mm 1 mps 707 mmHg 95%
    04:00 +20°C° 0 mm 1 mps 707 mmHg 94%
    05:00 +20°C° 0 mm 1 mps 708 mmHg 93%
    06:00 +18°C° 0 mm 0 mps 708 mmHg 92%
    07:00 +20°C° 0 mm 0 mps 709 mmHg 84%
    08:00 +22°C° 0 mm 0 mps 709 mmHg 77%
    09:00 +25°C° 0 mm 1 mps 710 mmHg 69%
    10:00 +27°C° 0 mm 1 mps 710 mmHg 62%
    11:00 +29°C° 0 mm 1 mps 709 mmHg 54%
    12:00 +30°C° 0 mm 2 mps 709 mmHg 47%
    13:00 +30°C° 0 mm 2 mps 708 mmHg 45%
    14:00 +30°C° 0 mm 2 mps 708 mmHg 44%
    15:00 +30°C° 0 mm 3 mps 707 mmHg 42%
    16:00 +28°C° 0 mm 2 mps 707 mmHg 51%
    17:00 +26°C° 0 mm 2 mps 707 mmHg 61%
    18:00 +24°C° 0 mm 2 mps 707 mmHg 70%
    19:00 +22°C° 0 mm 1 mps 708 mmHg 76%
    20:00 +21°C° 0 mm 1 mps 709 mmHg 83%
    21:00 +20°C° 0 mm 1 mps 709 mmHg 89%
    22:00 +20°C° 0 mm 1 mps 709 mmHg 92%
    23:00 +20°C° 0 mm 1 mps 709 mmHg 95%

    Day after tomorrow, 25 January, Saturday

    Time Temperature Precipitation Wind Pressure Humidity
    00:00 +20°C° 0 mm 1 mps 709 mmHg 98%
    01:00 +20°C° 0 mm 1 mps 709 mmHg 97%
    02:00 +20°C° 0 mm 1 mps 708 mmHg 97%
    03:00 +20°C° 0 mm 1 mps 708 mmHg 96%
    04:00 +20°C° 0 mm 1 mps 708 mmHg 96%
    05:00 +19°C° 0 mm 1 mps 709 mmHg 96%
    06:00 +19°C° 0 mm 1 mps 709 mmHg 95%
    07:00 +21°C° 0 mm 1 mps 709 mmHg 90%
    08:00 +22°C° 0 mm 1 mps 710 mmHg 84%
    09:00 +23°C° 0 mm 1 mps 711 mmHg 78%
    10:00 +25°C° 0 mm 1 mps 711 mmHg 70%
    11:00 +27°C° 0 mm 2 mps 710 mmHg 61%
    12:00 +29°C° 0 mm 2 mps 710 mmHg 53%
    13:00 +29°C° 0 mm 2 mps 709 mmHg 52%
    14:00 +29°C° 0 mm 2 mps 709 mmHg 50%
    15:00 +29°C° 0 mm 3 mps 708 mmHg 49%
    16:00 +27°C° 0 mm 2 mps 708 mmHg 58%
    17:00 +25°C° 0 mm 2 mps 708 mmHg 68%
    18:00 +23°C° 0 mm 2 mps 708 mmHg 77%
    19:00 +22°C° 0 mm 1 mps 709 mmHg 84%
    20:00 +21°C° 0 mm 1 mps 709 mmHg 90%
    21:00 +20°C° 0 mm 1 mps 709 mmHg 96%
    22:00 +19°C° 0 mm 1 mps 709 mmHg 97%
    23:00 +19°C° 0 mm 1 mps 709 mmHg 97%

    26 January, Sunday

    Time Temperature Precipitation Wind Pressure Humidity
    00:00 +19°C° 0 mm 1 mps 709 mmHg 98%
    01:00 +17°C° 0 mm 0 mps 708 mmHg 97%
    02:00 +17°C° 0 mm 0 mps 708 mmHg 97%
    03:00 +17°C° 0 mm 0 mps 708 mmHg 97%
    04:00 +16°C° 0 mm 0 mps 708 mmHg 96%
    05:00 +16°C° 0 mm 0 mps 708 mmHg 96%
    06:00 +16°C° 0 mm 0 mps 708 mmHg 95%
    07:00 +18°C° 0 mm 0 mps 709 mmHg 87%
    08:00 +20°C° 0 mm 0 mps 710 mmHg 79%
    09:00 +22°C° 0 mm 0 mps 710 mmHg 71%
    10:00 +25°C° 0 mm 0 mps 710 mmHg 62%
    11:00 +30°C° 0 mm 1 mps 710 mmHg 53%
    12:00 +32°C° 0 mm 1 mps 709 mmHg 43%
    13:00 +32°C° 0 mm 1 mps 709 mmHg 42%
    14:00 +33°C° 0 mm 1 mps 708 mmHg 40%
    15:00 +33°C° 0 mm 1 mps 707 mmHg 38%
    16:00 +31°C° 0 mm 1 mps 707 mmHg 48%
    17:00 +28°C° 0 mm 1 mps 707 mmHg 57%
    18:00 +26°C° 0 mm 1 mps 707 mmHg 67%
    19:00 +24°C° 0 mm 1 mps 707 mmHg 74%
    20:00 +23°C° 0 mm 1 mps 707 mmHg 81%
    21:00 +22°C° 0 mm 1 mps 708 mmHg 88%
    22:00 +22°C° 0 mm 1 mps 708 mmHg 90%
    23:00 +21°C° 0 mm 1 mps 707 mmHg 92%

    27 January, Monday

    Time Temperature Precipitation Wind Pressure Humidity
    00:00 +21°C° 0 mm 1 mps 707 mmHg 95%
    01:00 +21°C° 0 mm 1 mps 707 mmHg 95%
    02:00 +20°C° 0 mm 1 mps 707 mmHg 96%
    03:00 +18°C° 0 mm 0 mps 707 mmHg 96%
    04:00 +18°C° 0 mm 0 mps 707 mmHg 96%
    05:00 +18°C° 0 mm 0 mps 707 mmHg 96%
    06:00 +18°C° 0 mm 0 mps 708 mmHg 96%
    07:00 +20°C° 0 mm 0 mps 708 mmHg 87%
    08:00 +23°C° 0 mm 0 mps 709 mmHg 79%
    09:00 +25°C° 0 mm 0 mps 710 mmHg 70%
    10:00 +29°C° 0 mm 1 mps 709 mmHg 63%
    11:00 +30°C° 0 mm 1 mps 709 mmHg 56%
    12:00 +32°C° 0 mm 1 mps 709 mmHg 49%
    13:00 +32°C° 0.1 mm 1 mps 708 mmHg 50%
    14:00 +31°C° 0.1 mm 1 mps 707 mmHg 51%
    15:00 +31°C° 0.1 mm 1 mps 707 mmHg 52%
    16:00 +29°C° 0.2 mm 1 mps 707 mmHg 61%
    17:00 +27°C° 0.2 mm 1 mps 707 mmHg 70%
    18:00 +25°C° 0.2 mm 1 mps 707 mmHg 79%
    19:00 +24°C° 0.1 mm 1 mps 707 mmHg 82%
    20:00 +24°C° 0.1 mm 1 mps 708 mmHg 84%
    21:00 +23°C° 0.1 mm 1 mps 708 mmHg 86%
    22:00 +21°C° 0 mm 0 mps 708 mmHg 86%
    23:00 +21°C° 0 mm 0 mps 708 mmHg 87%

    28 January, Tuesday

    Time Temperature Precipitation Wind Pressure Humidity
    00:00 +21°C° 0 mm 0 mps 708 mmHg 87%
    01:00 +20°C° 0 mm 0 mps 707 mmHg 89%
    02:00 +19°C° 0 mm 0 mps 707 mmHg 91%
    03:00 +19°C° 0 mm 0 mps 706 mmHg 93%
    04:00 +19°C° 0 mm 0 mps 707 mmHg 94%
    05:00 +18°C° 0 mm 0 mps 707 mmHg 95%
    06:00 +18°C° 0 mm 0 mps 707 mmHg 95%
    07:00 +21°C° 0 mm 0 mps 708 mmHg 86%
    08:00 +23°C° 0 mm 0 mps 708 mmHg 77%
    09:00 +26°C° 0 mm 0 mps 709 mmHg 68%
    10:00 +28°C° 0 mm 0 mps 709 mmHg 60%
    11:00 +31°C° 0 mm 1 mps 708 mmHg 52%
    12:00 +33°C° 0 mm 1 mps 708 mmHg 45%
    13:00 +33°C° 0 mm 1 mps 707 mmHg 43%
    14:00 +34°C° 0 mm 2 mps 707 mmHg 42%
    15:00 +34°C° 0 mm 2 mps 706 mmHg 41%
    16:00 +31°C° 0 mm 2 mps 706 mmHg 48%
    17:00 +29°C° 0 mm 1 mps 706 mmHg 56%
    18:00 +27°C° 0 mm 1 mps 706 mmHg 63%
    19:00 +26°C° 0 mm 1 mps 707 mmHg 70%
    20:00 +24°C° 0 mm 1 mps 707 mmHg 76%
    21:00 +23°C° 0 mm 1 mps 707 mmHg 82%
    22:00 +23°C° 0 mm 1 mps 707 mmHg 85%
    23:00 +22°C° 0 mm 1 mps 707 mmHg 88%
    Show more